Location: Coche
(10.4506°N, 66.9257°W)
Time: 20:24:46
(UTC+00:00)

YAOGAN 1 - Pass Details

Date: 08 December 2021
Orbit: 618 x 620 km, 97.9° (Epoch: 16 January)

Event Time Altitude Azimuth Distance (km) Brightness Sun altitude
Rises 23:20:30 0° 158° (SSE) 2,885 6.0 -17.9°
Reaches altitude 10° 23:22:44 10° 153° (SSE) 1,980 5.1 -18.4°
Maximum altitude 23:26:54 50° 78° (ENE) 788 2.6 -19.4°
Enters shadow 23:28:08 38° 29° (NNE) 954 3.1 -19.6°
